Anoka County, MN

1:26 AM CDT on May 27, 2018 (GMT -0500)
Anoka County / Blaine Airport

Weather History for KANE - March, 2014

Change the Weather History Date:

Thursday, March 27, 2014

  Actual Average Record
Temperature  
Mean Temperature 37 °F -  
Max Temperature 42 °F 43 °F 69 °F (2012)
Min Temperature 32 °F 26 °F 12 °F (2001)
Degree Days  
Heating Degree Days 28    
Moisture  
Dew Point 34 °F    
Average Humidity 87    
Maximum Humidity 100    
Minimum Humidity 53    
Precipitation  
Precipitation 0.00 in - - ()
Sea Level Pressure  
Sea Level Pressure 29.57 in    
Wind  
Wind Speed 15 mph (SE)    
Max Wind Speed 20 mph    
Max Gust Speed 28 mph    
Visibility 6 miles    
Events      
Averages and records for this station are not official NWS values.
T = Trace of Precipitation, MM = Missing Value Source: NWS Daily Summary

Daily Weather History Graph

Daily Weather History Graph

Search for Another Location

Airport or City:

Astronomy

Mar. 27, 2014 Rise Set
Actual Time 7:02 AM CDT 7:34 PM CDT
Civil Twilight 6:33 AM CDT 8:03 PM CDT
Nautical Twilight 5:58 AM CDT 8:39 PM CDT
Astronomical Twilight 5:22 AM CDT 9:15 PM CDT
Moon 5:03 AM CDT 4:14 PM CDT
Length of Visible Light 13h 30m
Length of Day
12h 31m
Waning Crescent, 13% of the Moon is Illuminated
Mar 27
Waning Crescent
Mar 30
New
Apr 7
First Quarter
Apr 15
Full
Apr 22
Last Quarter

Hourly Weather History & Observations

Time (CDT) Temp. Windchill Dew Point Humidity Pressure Visibility Wind Dir Wind Speed Gust Speed Precip Events Conditions
12:15 AM 42.8 °F 34.3 °F 26.6 °F 53% 29.56 in 10.0 mi SSE 19.6 mph 27.6 mph N/A   Overcast
12:35 AM 42.8 °F 34.3 °F 26.6 °F 53% 29.56 in 10.0 mi SSE 19.6 mph 25.3 mph N/A   Overcast
12:55 AM 42.8 °F 34.5 °F 28.4 °F 57% 29.55 in 10.0 mi SSE 18.4 mph 26.5 mph N/A   Overcast
1:16 AM 42.8 °F 34.8 °F 28.4 °F 57% 29.56 in 10.0 mi SSE 17.3 mph 24.2 mph N/A   Overcast
1:35 AM 42.8 °F 35.8 °F 30.2 °F 61% 29.56 in 10.0 mi SSE 13.8 mph - N/A   Overcast
1:55 AM 42.8 °F 35.8 °F 30.2 °F 61% 29.56 in 10.0 mi SSE 13.8 mph 19.6 mph N/A   Overcast
2:16 AM 42.8 °F 34.8 °F 33.8 °F 70% 29.55 in 10.0 mi SSE 17.3 mph 25.3 mph N/A   Overcast
2:35 AM 41.0 °F 33.9 °F 33.8 °F 76% 29.55 in 10.0 mi SSE 12.7 mph - N/A   Overcast
2:55 AM 41.0 °F 33.5 °F 33.8 °F 76% 29.55 in 10.0 mi SSE 13.8 mph - N/A   Overcast
3:16 AM 41.0 °F 33.9 °F 35.6 °F 81% 29.55 in 7.0 mi SSE 12.7 mph 18.4 mph N/A   Overcast
3:35 AM 39.2 °F 32.5 °F 37.4 °F 93% 29.55 in 5.0 mi SSE 10.4 mph - N/A   Overcast
3:55 AM 39.2 °F 33.0 °F 37.4 °F 93% 29.54 in 3.0 mi SSE 9.2 mph - N/A   Overcast
4:16 AM 39.2 °F 32.5 °F 37.4 °F 93% 29.54 in 2.5 mi SE 10.4 mph - N/A   Overcast
4:35 AM 39.2 °F 33.0 °F 39.2 °F 100% 29.53 in 2.0 mi SSE 9.2 mph - N/A   Overcast
4:55 AM 39.2 °F 32.5 °F 39.2 °F 100% 29.53 in 2.0 mi SSE 10.4 mph - N/A   Overcast
5:15 AM 39.2 °F 33.0 °F 39.2 °F 100% 29.52 in 1.8 mi SSE 9.2 mph - N/A   Overcast
5:35 AM 39.2 °F 33.0 °F 39.2 °F 100% 29.52 in 2.0 mi SSE 9.2 mph - N/A   Overcast
5:55 AM 39.2 °F 33.0 °F 39.2 °F 100% 29.51 in 2.0 mi SE 9.2 mph - N/A   Overcast
6:15 AM 39.2 °F 33.6 °F 39.2 °F 100% 29.51 in 2.0 mi SSE 8.1 mph - N/A   Overcast
6:36 AM 39.2 °F 32.5 °F 39.2 °F 100% 29.51 in 2.0 mi SSE 10.4 mph - N/A   Overcast
6:55 AM 39.2 °F 33.0 °F 39.2 °F 100% 29.51 in 2.0 mi SSE 9.2 mph - N/A   Overcast
7:45 AM 39.2 °F 33.0 °F 39.2 °F 100% 29.51 in 1.8 mi SE 9.2 mph - N/A   Overcast
8:45 AM 39.2 °F 34.2 °F 39.2 °F 100% 29.50 in 1.2 mi SE 6.9 mph - N/A   Overcast
11:45 AM 39.2 °F 33.0 °F 39.2 °F 100% 29.48 in 1.8 mi SE 9.2 mph - N/A   Overcast
12:45 PM 39.2 °F 33.0 °F 39.2 °F 100% 29.47 in 1.5 mi SE 9.2 mph - N/A   Overcast
1:45 PM 39.2 °F 34.2 °F 39.2 °F 100% 29.47 in 2.0 mi SE 6.9 mph - N/A   Overcast
9:16 PM 33.8 °F 22.8 °F 30.2 °F 87% 29.64 in 10.0 mi North 18.4 mph 25.3 mph N/A   Overcast
9:35 PM 33.8 °F 22.5 °F 30.2 °F 87% 29.65 in 10.0 mi North 19.6 mph 25.3 mph N/A   Overcast
9:55 PM 33.8 °F 22.5 °F 30.2 °F 87% 29.66 in 10.0 mi North 19.6 mph 24.2 mph N/A   Overcast
10:15 PM 32.0 °F 20.1 °F 30.2 °F 93% 29.67 in 10.0 mi North 19.6 mph 23.0 mph N/A   Overcast
10:35 PM 32.0 °F 20.5 °F 30.2 °F 93% 29.69 in 10.0 mi North 18.4 mph 24.2 mph N/A   Overcast
10:55 PM 32.0 °F 21.6 °F 30.2 °F 93% 29.70 in 10.0 mi North 15.0 mph 23.0 mph N/A   Overcast
11:15 PM 32.0 °F 21.2 °F 30.2 °F 93% 29.72 in 10.0 mi North 16.1 mph 21.9 mph N/A   Overcast
11:36 PM 32.0 °F 21.6 °F 30.2 °F 93% 29.73 in 10.0 mi North 15.0 mph 21.9 mph N/A   Overcast
11:55 PM 32.0 °F 20.8 °F 30.2 °F 93% 29.74 in 10.0 mi North 17.3 mph 21.9 mph N/A   Overcast